Regional Weather Roundup
Issued by NWS

Home | Current Version | Previous Version | Graphics & Text | Print | Product List | Glossary On
Versions: 1 2 3 4 5 6 7 8 9 10 11 12 13 14 15 16 17 18 19 20 21 22 23 24 25 26 27
000
ASUS45 KTFX 241810
RWRMT
MONTANA REGIONAL WEATHER ROUNDUP
NATIONAL WEATHER SERVICE GREAT FALLS MT
1200 PM MDT SUN SEP 24 2017

NOTE: "FAIR" INDICATES FEW OR NO CLOUDS BELOW 12000 FEET WITH NO
SIGNIFICANT WEATHER AND/OR OBSTRUCTIONS TO VISIBILITY.

MTZ001>007-043-241900-
WEST OF THE DIVIDE

CITY           SKY/WX    TMP DP  RH WIND       PRES   REMARKS
KALISPELL      MOSUNNY   52  38  58 VRB3      30.12F
MISSOULA       SUNNY     48  37  65 CALM      30.14F
BUTTE          MOSUNNY   44  32  62 VRB3      30.11F
MULLAN PASS    PTSUNNY   43  35  73 VRB3      30.13S
ANACONDA         N/A     45  30  57 E3        30.11F
DEER LODGE       N/A     45  32  61 CALM      30.14F
EUREKA           N/A     48  43  81 CALM        N/A
HAMILTON         N/A     48  34  57 CALM      30.13F
LIBBY            N/A     55  39  54 E3        30.09F
$$

MTZ008-052>055-241900-
SOUTHWEST MONTANA

CITY           SKY/WX    TMP DP  RH WIND       PRES   REMARKS
BOZEMAN        CLOUDY    46  36  68 CALM      30.11S
DILLON         SUNNY     45  27  49 VRB7      30.09F
W YELLOWSTONE  CLOUDY    43  27  52 MISG      30.04S
ENNIS          CLOUDY    43  30  61 NW15      30.12S
THREE FORKS      N/A     49  34  56 NE1       30.09S
$$

MTZ009-010-012-014-046-048-049-054-241900-
EAST SLOPES AND CENTRAL MONTANA

CITY           SKY/WX    TMP DP  RH WIND       PRES   REMARKS
CUT BANK       SUNNY     53  32  44 W7        30.07F
GREAT FALLS    SUNNY     51  31  46 W3        30.10S
MALMSTROM AFB  SUNNY     50  34  55 CALM      30.10S
HELENA         SUNNY     48  34  58 NE3       30.10F
BOWMANS CRNR     N/A     46  30  52 S9        30.07F
CHOTEAU          N/A     54  32  43 VRB5G12   30.09F
FAIRFIELD        N/A     51  32  48 S6        30.08F
POWER            N/A     49  32  50 SW5       30.08F
RAYNESFORD       N/A     50  30  45 CALM      30.09F
ULM              N/A     51  31  47 CALM      30.10S
$$

MTZ011-013-016-021-045-047-050-051-241900-
NORTH CENTRAL MONTANA

CITY           SKY/WX    TMP DP  RH WIND       PRES   REMARKS
HAVRE          CLOUDY    49  39  68 SW9       30.11S
LEWISTOWN      SUNNY     51  32  48 VRB3      30.10S
N BAR RANCH    CLOUDY    46  36  66 VRB5      30.13S
CHINOOK          N/A     46  41  81 CALM      30.11F
DENTON           N/A     51  33  50 SE3       30.07F
GEYSER           N/A     51  30  45 E5        30.09S
JUDITH GAP       N/A     44  38  78 S14       30.10F
WINIFRED       PTSUNNY   51  37  57 NE7       30.10S
$$

MTZ017>020-022>027-061-062-241900-
NORTHEAST MONTANA

CITY           SKY/WX    TMP DP  RH WIND       PRES   REMARKS
GLASGOW        CLOUDY    52  39  61 CALM      30.11F
JORDAN           N/A     50  38  63 VRB3      30.12S
SIDNEY         CLOUDY    47  40  76 NE8       30.12R
WOLF POINT     CLOUDY    55  36  48 N6        30.11F
MALTA          CLOUDY    50  43  76 E5        30.13F
PLENTYWOOD       N/A     48  37  66 CALM      30.10F
POPLAR           N/A     52  37  58 NE6       30.11F
$$

MTZ028>42-056>058-241900-
SOUTHCENTRAL AND SOUTHEAST MONTANA

CITY           SKY/WX    TMP DP  RH WIND       PRES   REMARKS
BAKER          CLOUDY    43  39  86 NW7       30.11R
BILLINGS       CLOUDY    46  38  73 CALM      30.13R
LIVINGSTON     CLOUDY    46  34  62 E6        30.10S
MILES CITY     CLOUDY    45  39  79 NW5       30.13R
BIG TIMBER     CLOUDY    43  37  81 E5        30.14S
HARLOWTON        N/A     45  36  69 MISG      30.11S
LAUREL           N/A     46  39  76 CALM      30.14S
$$

REGIONAL REPORTS...DAKOTAS

CITY           SKY/WX    TMP DP  RH WIND       PRES   REMARKS
WILLISTON      CLOUDY    47  41  80 N8        30.11R
MINOT          CLOUDY    49  46  90 NW13      30.03R
DICKINSON      CLOUDY    45  43  93 N10       30.06R
BEACH          CLOUDY    43  43 100 N10       30.13R
CROSBY         CLOUDY    48  45  87 N10       30.10S
TIOGA          CLOUDY    45  45 100 N12       30.10R
BISMARCK       CLOUDY    50  48  93 N8        30.01R
GRAND FORKS    RAIN      53  53 100 NW14      29.88R FOG
FARGO          LGT RAIN  56  55  97 NW9       29.85R
BUFFALO SD       N/A     46  43  89 NW14      30.02R
RAPID CITY     CLOUDY    48  43  81 N16       30.06R
$$

REGIONAL REPORTS...WYOMING/IDAHO/WASHINGTON

CITY           SKY/WX    TMP DP  RH WIND       PRES   REMARKS
GILLETTE       CLOUDY    43  39  86 N10       30.08S
SHERIDAN       CLOUDY    45  40  82 N7        30.11S
BUFFALO WY     CLOUDY    41  36  82 N16       30.09F
CODY           CLOUDY    41  34  76 VRB6      30.11S
IDAHO FALLS    MOSUNNY   52  32  46 N10G17    29.99F
SALMON         SUNNY     47  29  49 CALM      30.11F
BOISE          SUNNY     54  35  48 N6        30.06S
SPOKANE        MOSUNNY   58  41  53 CALM      30.11F
$$

REGIONAL REPORTS...ALBERTA

CITY           SKY/WX    TMP DP  RH WIND       PRES   REMARKS
EDMONTON       CLOUDY    52  43  71 S6        29.97F
CALGARY        MOSUNNY   54  36  50 S5        30.03F
LETHBRIDGE     MOSUNNY   50  36  57 VRB2      30.06F
MEDICINE HAT   MOSUNNY   54  37  54 CALM      30.08F
$$

REGIONAL REPORTS...SASKATCHEWAN

CITY           SKY/WX    TMP DP  RH WIND       PRES   REMARKS
SWIFT CURRENT    N/A     52  36  54 S9        30.09F
REGINA         MOSUNNY   54  34  47 VRB6      30.11F
SASKATOON      MOSUNNY   55  39  54 SE6       30.12F
$$




USA.gov is the U.S. government's official web portal to all federal, state and local government web resources and services.